Flag for Russia Weather past 2 weeks in Saint-Petersburg, Russia

Now
43 °F

Sunny.


Feels Like: 36 °F
Forecast: 35 / 58 °F
Wind: 13 mph from West

Location: St. Petersburg


UV Index: 3 (Moderate)

Visibility: 10 mi


Pressure: 30.21 "Hg

Humidity: 57%

Dew point: 28 °F

Location of Saint-PetersburgLocation

Historic Weather in Saint-Petersburg

°F

Saint-Petersburg temperature yesterday

Maximum temperature yesterday: 48 °F (at 2:00 PM)
Minimum temperature yesterday: 36 °F (at 6:30 AM)
Average temperature yesterday: 43 °F

Past Weeks' High & Low Weather Summary

 TemperatureHumidityPressure
High73 °F (Apr 21, 6:00 PM)100% (Apr 13, 6:30 AM)30.54 "Hg (Apr 13, 6:30 AM)
Low25 °F (Apr 10, 8:00 AM)20% (Apr 11, 4:30 PM)29.42 "Hg (Apr 14, 1:00 PM)
Average46 °F54%30.07 "Hg
* Reported Apr 10 8:00 AM — Apr 25 8:30 AM, Saint-Petersburg, Weather by CustomWeather, © 2014

Note: Actual official high and low records may vary slightly from our data, if they occured in-between our weather recording intervals... More about our weather records

Advertising

Historic Weather Conditions — Data for Previous 24 hours

 ConditionsComfort  
Time TempWeatherWind HumidityBarometerVisibility
8:30 AM
Apr 25
41 °FSunny.10 mph66%30.24 "Hg10 mi
8:00 AM39 °FSunny.10 mph70%30.24 "Hg10 mi
7:30 AM36 °FSunny.8 mph81%30.24 "Hg10 mi
7:00 AM34 °FClear.6 mph81%30.24 "Hg10 mi
6:30 AM34 °FClear.8 mph75%30.24 "Hg10 mi
6:00 AM32 °FClear.8 mph75%30.24 "Hg10 mi
5:30 AM34 °FClear.6 mph70%30.24 "Hg10 mi
5:00 AM34 °FClear.6 mph65%30.24 "Hg10 mi
4:30 AM36 °FClear.6 mph60%30.27 "Hg10 mi
4:00 AM34 °FClear.6 mph60%30.27 "Hg10 mi
3:30 AM34 °FClear.6 mph56%30.27 "Hg10 mi
3:00 AM36 °FClear.8 mph52%30.27 "Hg10 mi
2:30 AM36 °FClear.6 mph52%30.30 "Hg10 mi
2:00 AM36 °FClear.6 mph52%30.30 "Hg10 mi
1:30 AM36 °FClear.6 mph56%30.30 "Hg10 mi
1:00 AM36 °FClear.8 mph52%30.30 "Hg10 mi
12:30 AM36 °FPassing clouds.6 mph52%30.30 "HgN/A
12:00 AM37 °FClear.6 mph45%30.33 "Hg10 mi
11:30 PM
Apr 24
39 °FClear.8 mph42%30.33 "Hg10 mi
11:00 PM39 °FClear.6 mph42%30.33 "Hg10 mi
10:30 PM39 °FSunny.8 mph42%30.33 "Hg10 mi
10:00 PM41 °FPassing clouds.8 mph42%30.33 "HgN/A
9:30 PM43 °FPassing clouds.6 mph61%30.33 "HgN/A
9:00 PM45 °FPassing clouds.8 mph53%30.36 "HgN/A
8:30 PM45 °FPassing clouds.8 mph46%30.36 "HgN/A
8:00 PM46 °FPassing clouds.8 mph40%30.36 "HgN/A
7:30 PM46 °FSunny.13 mph37%30.39 "Hg10 mi
7:00 PM48 °FSunny.13 mph32%30.39 "Hg10 mi
6:30 PM48 °FSunny.13 mph29%30.42 "Hg10 mi
6:00 PM48 °FSunny.13 mph27%30.42 "Hg10 mi
5:30 PM48 °FSunny.13 mph25%30.42 "Hg10 mi
5:00 PM48 °FSunny.10 mph29%30.45 "Hg10 mi
4:30 PM48 °FPassing clouds.10 mph29%30.45 "HgN/A
4:00 PM48 °FSunny.10 mph25%30.48 "Hg10 mi
3:30 PM48 °FPassing clouds.10 mph25%30.48 "HgN/A
3:00 PM48 °FPassing clouds.8 mph27%30.51 "HgN/A
2:30 PM46 °FPassing clouds.8 mph32%30.51 "HgN/A
2:00 PM48 °FPassing clouds.10 mph29%30.51 "HgN/A
1:30 PM45 °FPassing clouds.8 mph31%30.51 "HgN/A
1:00 PM46 °FPassing clouds.10 mph29%30.54 "HgN/A
12:30 PM45 °FSunny.13 mph31%30.54 "Hg10 mi
12:00 PM45 °FPassing clouds.8 mph31%30.54 "HgN/A
11:30 AM43 °FPassing clouds.6 mph31%30.54 "HgN/A
11:00 AM45 °FPassing clouds.8 mph29%30.54 "HgN/A
10:30 AM43 °FPassing clouds.6 mph29%30.54 "HgN/A
10:00 AM43 °FPassing clouds.6 mph31%30.54 "HgN/A
9:30 AM43 °FSunny.1 mph36%30.54 "Hg10 mi
9:00 AM39 °FPassing clouds.3 mph45%30.54 "HgN/A
Weather by CustomWeather, © 2014

See weather overview